Hourly Data Report for February 14, 2018

MIRAMICHI RCS
NEW BRUNSWICK

47°00'34.000" N
65°27'54.000" W
33.00 m
8100989
71744
ACQ

Download Data

Hourly Data (February 2018)
Hourly Data Report for February 14, 2018
TIME
LST
Temp Definition
°C
Dew Point Definition
°C
Rel Hum Definition
%
Precip. Amount Definition
mm

Wind Dir Definition
10's deg

Wind Spd Definition
km/h
Visibility Definition
km
Stn Press Definition
kPa
Hmdx Definition


Wind Chill Definition


Weather Definition


00:00 -16.0 -20.5 68 0.0 24 6   102.73   -20 LegendNANA
01:00 -12.8 -19.1 59 0.0 24 14   102.60   -20 LegendNANA
02:00 -11.8 -18.3 58 0.0 22 22   102.49   -21 LegendNANA
03:00 -11.0 -18.4 55 0.0 21 20   102.34   -19 LegendNANA
04:00 -11.5 -17.9 59 0.0 23 20   102.20   -20 LegendNANA
05:00 -9.9 -16.6 58 0.0 23 25   102.05   -19 LegendNANA
06:00 -9.3 -14.4 66 0.0 22 27   101.88   -18 LegendNANA
07:00 -8.0 -12.6 70 0.0 23 26   101.75   -16 LegendNANA
08:00 -7.3 -11.3 73 0.0 23 30   101.67   -16 LegendNANA
09:00 -6.2 -10.0 74 0.0 23 30   101.60   -15 LegendNANA
10:00 -4.8 -8.9 73 0.0 23 36   101.49   -13 LegendNANA
11:00 -3.6 -8.7 67 0.0 23 37   101.37   -12 LegendNANA
12:00 -2.1 -8.8 60 0.0 23 33   101.23   -10 LegendNANA
13:00 -0.7 -8.2 57 0.0 23 38   101.06   -8 LegendNANA
14:00 0.2 -7.5 56 0.0 23 30   100.96     LegendNANA
15:00 0.5 -7.7 54 0.0 23 29   100.88     LegendNANA
16:00 1.3 -7.5 52 0.0 23 26   100.80     LegendNANA
17:00 1.2 -6.9 55 0.0 23 27   100.74     LegendNANA
18:00 0.8 -6.4 59 0.0 23 22   100.74     LegendNANA
19:00 0.5 -5.9 63 0.0 22 21   100.71     LegendNANA
20:00 -0.5 -5.9 67 0.0 22 18   100.69   -6 LegendNANA
21:00 -0.7 -6.0 68 0.0 23 12   100.69   -5 LegendNANA
22:00 -2.8 -7.1 72 0.0 23 12   100.67   -7 LegendNANA
23:00 -3.9 -7.2 78 0.0 23 14   100.65   -9 LegendNANA

Notes on Data Quality.

Legend

  • E = Estimated
  • M = Missing
  • NA = Not Available*
  • [empty] = Indicates an unobserved value
Date modified: